STARLINK-1162 (45058 NORAD) Tracking and Keplerian Element Data

This shows tracking and keplerian element data for the satellite.

Feedback or suggestion? Click here.




ElementValue
Catalog45058
NameSTARLINK-1162
Epoch Orbit175
Epoch Day193.91667824
Epoch Year2020
RAAN204.7176
Inclination52.9998
Eccentricity8.42E-05
Argument of Perigee118.751
Mean Anonmoly84.8567
Mean Motion15.05577598
Decay Rate0.00035491
L11 45058U 20006Q 20193.91667824 .00035491 00000-0 24429-2 0 9993
L22 45058 52.9998 204.7176 0000842 118.7510 84.8567 15.05577598 1753

Live tracking and technical data element details for STARLINK-1162 (NORAD 45058). STARLINK-1162 can be tracked NOW for your location showing map with azimuth and elevation plus other details from your city location.

Track the satellite on the map from your city or location and see movement details for azimuth, elevation, latitude, longitude, range, height, and movement on the map or in text.







IsCatalogInMostPopularTable: catalog: 45058, numindb: 29
Update: records affected: 1



GetName: 45058 STARLINK-1162

Hit Count: updated at: Mon, 13 Jul 2020 05:56:20 GMT